Vorticity
19 11 6 6 -27 11 21 8 7 16 12 10 13 15 12 5 21 7 12 18 6 13 7 17 5 10 12 8 12 20 13 7 11 7 4 3 4 16 8 14 8 6 7
-0 14 29 22 14 18 35 18 13 14 8 10 11 15 13 7 17 16 5 8 -2 -11 21 -4 8 4 11 8 9 17 9 -0 -0 3 4 7 11 17 12 14 6 7 6
8 -1 10 18 25 8 9 -6 10 17 23 2 6 10 12 11 24 0 18 25 13 -1 -0 4 8 5 15 12 16 19 3 8 3 8 2 1 2 10 5 9 2 5 10
6 5 5 -5 30 30 13 37 32 16 38 5 17 13 14 17 -10 5 21 1 44 54 38 12 -12 -2 -1 8 8 16 8 5 -0 16 -2 9 -9 -11 5 7 18 8 7
4 4 4 1 1 20 38 11 11 24 29 15 -4 7 11 17 13 26 21 29 43 41 -1 5 1 -7 -6 -2 6 14 -2 -6 12 -2 20 18 4 19 -5 9 9 11 13
4 4 3 4 7 4 8 26 10 -1 28 -0 44 20 43 9 8 2 7 -7 10 22 23 1 8 20 17 6 6 1 14 16 -1 -6 20 -8 29 11 17 22 27 10 -8
7 4 5 4 5 5 2 1 16 22 -1 6 15 1 38 13 0 5 38 -0 -6 -9 -1 13 0 -12 4 -8 10 15 31 -8 26 -10 30 -1 -14 2 7 -10 -10 -12 -10
7 6 5 6 6 6 5 5 8 7 6 8 -8 9 4 19 23 19 5 13 16 24 22 27 49 45 15 20 15 -1 -5 16 36 -5 -10 14 1 -19 14 5 2 9 16
8 5 6 7 8 7 7 6 5 5 3 6 8 7 2 4 7 11 5 8 10 6 2 9 0 6 -1 2 3 9 37 20 6 38 25 -39 -23 18 14 16 7 9 8
8 6 4 7 7 8 7 6 7 6 5 5 8 6 6 6 6 5 3 3 4 4 4 3 6 9 6 7 8 3 6 1 13 31 17 10 8 -0 7 7 11 11 6
-1 10 3 3 9 8 6 5 7 8 7 7 5 4 2 1 2 2 2 4 4 5 4 4 4 4 3 3 8 6 4 9 13 3 15 22 15 3 -11 -4 10 11 7
6 4 8 0 5 9 7 5 8 7 5 4 1 -1 1 5 7 8 8 9 8 8 7 6 3 4 4 4 4 4 3 2 2 2 6 4 15 2 17 8 5 19 16
-13 5 9 2 2 9 7 7 6 5 4 1 -3 -0 3 5 8 11 11 12 12 13 12 11 11 10 9 8 7 5 4 4 4 5 5 3 2 3 1 6 -1 10 13
9 27 1 5 2 9 7 7 6 9 7 -1 -1 4 4 8 9 8 9 9 10 11 12 13 12 12 11 13 14 14 14 13 11 8 6 5 6 6 5 3 4 3 3
15 2 14 9 10 9 10 7 5 8 2 -3 2 1 7 8 8 10 9 8 7 7 6 9 13 13 15 13 14 15 15 14 13 15 17 17 15 13 10 10 8 8 7
22 14 13 5 7 6 8 6 10 6 -3 3 2 6 9 9 10 8 8 10 12 12 10 8 8 9 9 9 10 10 11 13 15 17 15 13 12 15 17 18 17 15 14
10 12 9 10 6 6 7 9 5 -1 3 3 7 10 11 12 11 12 14 15 15 15 15 14 12 11 11 9 9 11 11 11 12 13 17 18 20 19 16 13 13 14 16
16 10 8 7 5 6 7 5 1 2 3 5 9 11 11 11 11 12 13 14 14 15 15 15 17 17 16 12 10 9 10 10 9 10 10 11 13 15 19 20 22 22 21
12 9 7 5 6 7 9 4 4 7 10 11 11 10 9 9 11 12 12 11 11 9 10 11 11 10 11 12 13 13 14 12 8 7 7 9 8 8 10 9 11 12 16
7 6 5 6 8 9 6 4 4 5 8 10 10 10 11 10 10 9 9 10 10 10 12 10 8 9 9 10 10 10 11 11 10 9 9 8 6 5 6 8 7 6 8
8 8 9 12 8 5 3 5 8 10 11 11 11 12 13 11 10 10 10 9 8 7 8 9 9 8 8 8 8 9 9 9 9 10 10 9 7 6 5 5 6 6 8
15 13 11 8 6 5 9 12 12 12 11 12 13 12 11 10 10 9 8 8 9 9 9 8 7 8 10 11 13 15 15 17 17 16 15 16 16 16 16 15 14 13 10
10 9 7 5 7 11 13 11 10 11 12 12 12 11 10 8 8 8 8 8 7 7 9 11 13 15 15 14 14 14 13 12 13 12 13 13 12 13 13 13 13 14 15
9 7 8 12 13 12 10 11 11 12 12 11 9 8 8 7 7 7 8 9 11 13 14 14 13 12 11 11 13 13 13 12 11 11 10 10 11 13 13 13 14 14 14
9 11 13 12 10 10 11 11 9 8 7 7 7 7 8 8 10 11 13 13 13 12 12 12 11 12 11 11 11 12 13 13 12 12 11 12 13 11 12 13 13 13 12
10 12 10 11 11 11 9 7 6 7 8 7 8 10 13 14 15 14 14 16 17 17 16 16 15 15 15 14 12 12 13 13 12 12 13 11 12 12 12 13 13 10 10
Height
3088 3084 3080 3077 3075 3072 3070 3070 3071 3071 3072 3075 3077 3079 3083 3087 3089 3093 3097 3100 3102 3106 3109 3112 3113 3117 3119 3120 3123 3125 3128 3130 3133 3135 3137 3139 3139 3140 3143 3145 3148 3150 3153
3093 3087 3081 3076 3072 3070 3066 3065 3066 3066 3067 3069 3072 3073 3077 3080 3084 3085 3089 3092 3094 3098 3101 3104 3107 3110 3112 3114 3117 3119 3122 3126 3129 3130 3133 3133 3135 3134 3138 3139 3141 3144 3145
3094 3089 3082 3076 3071 3068 3066 3064 3063 3061 3061 3064 3067 3068 3072 3076 3078 3080 3083 3086 3084 3083 3090 3096 3099 3101 3104 3107 3109 3113 3117 3120 3122 3124 3127 3126 3125 3133 3133 3135 3136 3138 3139
3093 3090 3085 3079 3073 3067 3065 3060 3057 3057 3058 3060 3062 3065 3067 3072 3074 3075 3076 3080 3080 3080 3078 3087 3091 3093 3096 3100 3103 3106 3111 3114 3117 3118 3119 3119 3121 3124 3127 3129 3130 3131 3132
3093 3090 3086 3081 3075 3072 3067 3065 3062 3059 3058 3060 3061 3064 3067 3071 3071 3073 3073 3076 3077 3075 3082 3083 3086 3088 3092 3092 3096 3099 3104 3106 3109 3111 3111 3114 3114 3116 3119 3120 3123 3123 3124
3091 3089 3086 3083 3079 3075 3072 3068 3066 3062 3060 3056 3055 3065 3067 3067 3067 3068 3071 3070 3069 3072 3076 3079 3079 3082 3085 3086 3089 3092 3094 3098 3100 3104 3104 3105 3107 3108 3108 3110 3112 3114 3115
3090 3087 3086 3084 3081 3077 3075 3073 3069 3065 3064 3064 3064 3058 3058 3062 3062 3063 3065 3065 3066 3067 3069 3069 3075 3076 3078 3078 3081 3084 3086 3090 3091 3094 3094 3096 3097 3097 3099 3099 3102 3104 3106
3088 3087 3085 3084 3081 3079 3076 3074 3072 3070 3069 3067 3063 3061 3059 3058 3060 3062 3066 3065 3065 3068 3069 3069 3069 3072 3073 3074 3076 3078 3079 3079 3079 3082 3084 3086 3085 3086 3087 3089 3090 3092 3094
3086 3085 3084 3082 3080 3078 3076 3075 3073 3070 3069 3067 3065 3062 3063 3061 3063 3063 3064 3064 3065 3066 3066 3066 3067 3069 3070 3070 3070 3071 3069 3070 3071 3072 3076 3076 3077 3079 3080 3080 3082 3082 3082
3084 3083 3082 3081 3079 3077 3075 3073 3071 3070 3069 3068 3067 3066 3064 3064 3064 3064 3063 3062 3062 3063 3062 3062 3063 3063 3064 3064 3063 3064 3065 3064 3063 3063 3064 3065 3066 3067 3070 3072 3072 3071 3070
3083 3081 3080 3078 3077 3075 3073 3072 3070 3069 3067 3066 3064 3062 3062 3061 3060 3059 3057 3058 3057 3056 3055 3055 3055 3056 3056 3056 3057 3057 3057 3055 3056 3056 3056 3055 3056 3058 3060 3060 3060 3059 3058
3079 3079 3077 3075 3073 3071 3070 3068 3067 3067 3065 3064 3062 3061 3060 3059 3058 3057 3056 3054 3052 3051 3050 3048 3046 3046 3047 3047 3048 3047 3047 3047 3047 3047 3047 3046 3047 3047 3047 3048 3048 3046 3046
3074 3073 3072 3071 3070 3068 3066 3065 3064 3063 3061 3060 3059 3057 3055 3053 3051 3050 3049 3047 3045 3044 3042 3040 3038 3037 3037 3037 3036 3036 3036 3036 3036 3035 3035 3035 3035 3035 3035 3035 3034 3034 3033
3066 3065 3064 3064 3064 3063 3062 3061 3060 3059 3057 3056 3053 3051 3048 3046 3044 3041 3038 3035 3034 3033 3032 3031 3030 3029 3027 3025 3025 3024 3024 3024 3022 3022 3021 3021 3020 3021 3021 3021 3020 3020 3019
3058 3058 3057 3057 3057 3057 3057 3056 3055 3054 3052 3050 3048 3045 3043 3040 3037 3033 3030 3027 3023 3020 3017 3017 3017 3017 3015 3014 3012 3011 3010 3009 3009 3008 3007 3006 3006 3006 3005 3005 3005 3004 3004
3050 3050 3052 3052 3052 3051 3050 3050 3049 3049 3047 3045 3041 3038 3034 3030 3028 3025 3023 3021 3018 3015 3013 3009 3006 3003 3001 2999 2997 2995 2994 2994 2993 2994 2994 2992 2992 2990 2989 2988 2987 2988 2987
3045 3045 3046 3047 3046 3046 3046 3045 3043 3041 3039 3036 3032 3029 3025 3021 3017 3014 3011 3009 3008 3007 3004 3002 3000 2996 2992 2989 2986 2983 2980 2979 2978 2977 2977 2976 2977 2977 2975 2974 2973 2972 2972
3041 3041 3040 3040 3040 3039 3038 3037 3035 3033 3030 3027 3023 3019 3016 3013 3010 3007 3004 3001 2998 2996 2993 2991 2988 2986 2983 2979 2976 2973 2970 2968 2969 2967 2964 2962 2963 2961 2958 2958 2957 2958 2957
3036 3035 3035 3033 3032 3031 3030 3028 3025 3023 3020 3016 3012 3008 3005 3002 2999 2996 2994 2991 2989 2986 2984 2981 2978 2975 2974 2970 2967 2963 2960 2958 2957 2956 2953 2951 2950 2950 2948 2945 2943 2942 2943
3030 3028 3027 3025 3024 3023 3021 3019 3016 3012 3009 3006 3003 2999 2995 2993 2990 2987 2985 2982 2978 2976 2974 2971 2967 2964 2963 2960 2958 2955 2953 2950 2947 2944 2940 2939 2937 2935 2935 2932 2931 2928 2928
3022 3020 3019 3018 3016 3014 3013 3010 3007 3003 3000 2998 2994 2990 2986 2983 2980 2977 2973 2971 2968 2966 2964 2960 2958 2954 2951 2949 2946 2943 2940 2938 2937 2935 2933 2930 2927 2923 2921 2919 2917 2914 2913
3015 3014 3012 3011 3008 3006 3004 3000 2997 2994 2991 2988 2985 2981 2977 2973 2970 2968 2965 2961 2958 2955 2952 2949 2947 2943 2939 2936 2934 2931 2928 2925 2922 2921 2920 2918 2916 2914 2913 2909 2906 2903 2900
3007 3006 3005 3002 2999 2996 2993 2991 2987 2984 2982 2979 2975 2972 2968 2964 2960 2957 2954 2951 2947 2943 2940 2936 2933 2931 2928 2924 2921 2919 2916 2914 2911 2908 2906 2904 2902 2901 2900 2898 2895 2892 2890
3000 2999 2997 2994 2990 2987 2984 2981 2978 2975 2972 2969 2966 2962 2958 2955 2951 2946 2941 2937 2934 2930 2927 2923 2920 2917 2915 2912 2911 2907 2905 2903 2900 2898 2895 2892 2890 2889 2887 2885 2883 2880 2877
2993 2991 2989 2986 2983 2979 2975 2971 2968 2966 2963 2959 2956 2952 2948 2944 2940 2935 2930 2926 2923 2918 2914 2911 2908 2904 2902 2900 2898 2895 2893 2890 2888 2885 2882 2881 2879 2876 2875 2874 2871 2869 2866
2986 2984 2981 2978 2975 2972 2969 2963 2960 2956 2953 2949 2944 2940 2936 2932 2928 2923 2920 2917 2911 2907 2903 2900 2896 2893 2889 2887 2885 2883 2881 2878 2876 2872 2871 2868 2867 2865 2863 2861 2859 2858 2855